K9MWD Weather Reports


Display with metric or nautical units.
time (UTC)temp
F
wind
direction
speed
MPH
gust
MPH
rain 1hr
in
rain 24hr
in
rain mn
in
humidity
%
barometer
mb
20260509123646 71 281 0.0 0.0 0.00 0.00 0.00 89 1009.8
20260509123143 71 284 0.0 0.0 0.00 0.00 0.00 89 1010.2
20260509122638 70 311 0.0 0.0 0.00 0.00 0.00 90 1010.1
20260509122136 70 265 0.0 0.0 0.00 0.00 0.00 90 1010.1
20260509121632 70 294 0.0 0.0 0.00 0.00 0.00 90 1010.3
20260509121130 70 283 1.0 1.0 0.00 0.00 0.00 90 1010.5
20260509120628 70 275 0.0 0.0 0.00 0.00 0.00 89 1010.4
20260509120126 70 254 0.0 0.0 0.00 0.00 0.00 89 1010.6
20260509115623 70 248 1.0 1.0 0.00 0.00 0.00 89 1010.6
20260509115121 71 314 1.0 1.0 0.00 0.00 0.00 88 1010.5
20260509114619 71 274 0.0 0.0 0.00 0.00 0.00 88 1010.6
20260509114118 71 273 1.0 2.0 0.00 0.00 0.00 88 1010.5
20260509113615 71 259 3.0 3.0 0.00 0.00 0.00 88 1010.4
20260509113113 71 286 2.0 3.0 0.00 0.00 0.00 89 1010.4
20260509112609 71 277 4.0 5.0 0.00 0.00 0.00 89 1010.1
20260509112106 71 269 4.0 5.0 0.00 0.00 0.00 90 1010.3
20260509111603 70 281 6.0 7.0 0.00 0.00 0.00 91 1010.3
20260509111100 70 264 3.0 5.0 0.00 0.00 0.00 91 1010.0
20260509110557 70 317 7.0 9.0 0.00 0.00 0.00 91 1009.7
20260509110054 70 300 5.0 6.0 0.00 0.00 0.00 92 1009.7
20260509105552 70 272 6.0 7.0 0.00 0.00 0.00 92 1009.8
20260509105049 70 249 5.0 6.0 0.00 0.00 0.00 92 1009.3
20260509104546 70 252 4.0 7.0 0.00 0.00 0.00 92 1008.6
20260509104043 70 269 4.0 5.0 0.00 0.00 0.00 92 1008.5
20260509103541 70 216 3.0 3.0 0.00 0.00 0.00 92 1008.3
20260509103039 69 206 4.0 6.0 0.00 0.00 0.00 92 1008.0
20260509102536 69 170 4.0 6.0 0.00 0.00 0.00 92 1007.9
20260509102033 69 161 5.0 7.0 0.00 0.00 0.00 92 1007.9
20260509101529 69 172 5.0 6.0 0.00 0.00 0.00 92 1007.8
20260509101026 69 259 3.0 5.0 0.00 0.00 0.00 92 1007.6
20260509100523 69 202 4.0 5.0 0.00 0.00 0.00 92 1007.6
20260509100020 69 254 4.0 5.0 0.00 0.00 0.00 92 1007.4
20260509095517 69 171 5.0 8.0 0.00 0.00 0.00 92 1007.4
20260509095015 69 191 6.0 7.0 0.00 0.00 0.00 92 1007.4
20260509094510 69 196 6.0 8.0 0.00 0.00 0.00 92 1007.4
20260509094008 69 234 6.0 9.0 0.00 0.00 0.00 92 1007.5
20260509093506 68 204 6.0 8.0 0.00 0.00 0.00 92 1007.5
20260509093003 68 229 3.0 5.0 0.00 0.00 0.00 91 1007.4
20260509092501 68 197 4.0 6.0 0.00 0.00 0.00 91 1007.8
20260509091959 68 164 5.0 7.0 0.00 0.00 0.00 91 1007.7
20260509091456 68 332 6.0 8.0 0.00 0.00 0.00 91 1008.1
20260509090953 68 202 5.0 7.0 0.00 0.00 0.00 91 1008.6
20260509090450 68 210 2.0 2.0 0.00 0.00 0.00 91 1008.4
20260509085948 68 202 4.0 5.0 0.00 0.00 0.00 91 1008.9
20260509085445 69 140 2.0 2.0 0.00 0.00 0.00 91 1008.7
20260509084941 69 201 3.0 3.0 0.00 0.00 0.00 90 1008.9
20260509084438 69 187 3.0 3.0 0.00 0.00 0.00 90 1009.2
20260509083935 69 227 3.0 5.0 0.00 0.00 0.00 90 1009.4
20260509083433 69 241 3.0 5.0 0.00 0.00 0.00 90 1009.5
20260509082929 69 217 2.0 3.0 0.00 0.00 0.00 89 1009.5
20260509082427 69 206 1.0 2.0 0.00 0.00 0.00 89 1009.7
20260509081923 70 155 3.0 3.0 0.00 0.00 0.00 89 1009.7
20260509081421 70 258 3.0 3.0 0.00 0.00 0.00 89 1010.4
20260509080918 70 241 2.0 2.0 0.00 0.00 0.00 89 1010.7
20260509080416 70 249 3.0 5.0 0.00 0.00 0.00 89 1011.2
20260509075914 70 243 3.0 3.0 0.00 0.00 0.00 89 1011.3
20260509075410 70 238 3.0 5.0 0.00 0.00 0.00 89 1011.5
20260509074908 70 263 2.0 3.0 0.00 0.00 0.00 89 1011.6
20260509074406 70 240 3.0 3.0 0.00 0.00 0.00 89 1011.5
20260509073901 70 256 2.0 2.0 0.00 0.00 0.00 89 1011.6
20260509073358 70 259 2.0 2.0 0.00 0.00 0.00 89 1011.4
20260509072855 70 263 3.0 3.0 0.00 0.00 0.00 89 1011.2
20260509072351 70 261 2.0 2.0 0.00 0.00 0.00 89 1010.9
20260509071848 70 278 2.0 2.0 0.00 0.00 0.00 89 1010.9
20260509071345 70 263 1.0 1.0 0.00 0.00 0.00 89 1010.9
20260509070842 70 268 1.0 1.0 0.00 0.00 0.00 89 1010.9
20260509070339 70 251 1.0 1.0 0.00 0.00 0.00 89 1011.1
20260509065835 70 290 1.0 1.0 0.00 0.00 0.00 89 1011.4
20260509065331 69 293 1.0 2.0 0.00 0.00 0.00 89 1011.4
20260509064827 69 327 1.0 1.0 0.00 0.00 0.00 89 1011.3
20260509064325 69 316 1.0 1.0 0.00 0.00 0.00 89 1011.3
20260509063822 69 322 1.0 2.0 0.00 0.00 0.00 89 1011.3
20260509063318 69 344 2.0 2.0 0.00 0.00 0.00 89 1011.2
20260509062816 69 316 1.0 2.0 0.00 0.00 0.00 89 1011.2
20260509062313 69 351 1.0 1.0 0.00 0.00 0.00 89 1011.0
20260509061810 69 334 1.0 2.0 0.00 0.00 0.00 89 1011.1
20260509061308 69 321 0.0 1.0 0.00 0.00 0.00 89 1010.8
20260509060805 69 272 0.0 0.0 0.00 0.00 0.00 89 1010.6
20260509060301 69 256 0.0 0.0 0.00 0.00 0.00 89 1010.4
20260509055757 69 257 0.0 0.0 0.00 0.00 0.00 89 1010.5
20260509055253 69 256 0.0 1.0 0.00 0.00 0.00 89 1010.4
20260509054749 70 255 0.0 0.0 0.00 0.00 0.00 89 1010.5
20260509054246 70 245 0.0 0.0 0.00 0.00 0.00 88 1010.8
20260509053745 70 147 2.0 2.0 0.00 0.00 0.00 88 1010.5
20260509053241 70 125 1.0 2.0 0.00 0.00 0.00 88 1010.4
20260509052740 70 196 3.0 5.0 0.00 0.00 0.00 88 1010.4
20260509052237 71 116 3.0 5.0 0.00 0.00 0.00 87 1010.5
20260509051734 71 236 0.0 0.0 0.00 0.00 0.00 87 1010.5
20260509051233 71 198 0.0 1.0 0.00 0.00 0.00 86 1010.7
20260509050729 71 104 1.0 1.0 0.00 0.00 0.00 86 1010.4
20260509050226 71 103 1.0 2.0 0.00 0.00 0.00 86 1011.0
20260509045723 71 350 0.0 1.0 0.00 0.04 0.04 85 1011.2
20260509045219 71 354 0.0 1.0 0.00 0.04 0.04 85 1011.0
20260509044717 72 23 0.0 0.0 0.00 0.04 0.04 85 1010.7
20260509044215 72 87 1.0 1.0 0.00 0.04 0.04 85 1010.8
20260509043711 72 67 1.0 1.0 0.00 0.04 0.04 85 1010.7
20260509043207 72 20 0.0 0.0 0.00 0.04 0.04 84 1010.8
20260509042703 72 53 0.0 1.0 0.00 0.04 0.04 84 1010.9
20260509042159 72 53 0.0 0.0 0.00 0.04 0.04 84 1010.6
20260509041656 72 59 1.0 1.0 0.00 0.04 0.04 84 1010.8
20260509041153 72 81 0.0 0.0 0.00 0.04 0.04 84 1010.6
20260509040652 73 84 0.0 1.0 0.00 0.04 0.04 84 1010.5
20260509040148 73 85 1.0 1.0 0.00 0.04 0.04 84 1010.5
20260509035645 73 84 1.0 1.0 0.00 0.04 0.04 84 1010.6
20260509035142 73 84 1.0 1.0 0.00 0.04 0.04 84 1010.6
20260509034639 73 83 0.0 0.0 0.00 0.04 0.04 84 1010.7
20260509034136 73 84 0.0 0.0 0.00 0.04 0.04 84 1010.5
20260509033633 72 84 0.0 0.0 0.00 0.04 0.04 84 1010.4
20260509033130 72 91 0.0 0.0 0.00 0.04 0.04 84 1010.3
20260509032628 72 84 1.0 1.0 0.00 0.04 0.04 84 1010.2
20260509032124 72 91 1.0 1.0 0.00 0.04 0.04 84 1010.1
20260509031622 72 106 1.0 2.0 0.00 0.04 0.04 83 1010.1
20260509031119 72 121 2.0 2.0 0.00 0.04 0.04 83 1009.8
20260509030617 73 178 2.0 2.0 0.00 0.04 0.04 83 1009.6
20260509030114 73 133 3.0 3.0 0.00 0.04 0.04 83 1009.7
20260509025610 73 83 1.0 1.0 0.00 0.04 0.04 83 1010.0
20260509025106 73 101 1.0 2.0 0.00 0.04 0.04 82 1010.1
20260509024602 73 82 1.0 1.0 0.00 0.04 0.04 82 1009.9
20260509024058 73 59 0.0 0.0 0.00 0.04 0.04 82 1009.9
20260509023556 73 101 2.0 2.0 0.00 0.04 0.04 82 1009.8
20260509023053 73 95 2.0 2.0 0.00 0.04 0.04 82 1009.6
20260509022549 73 98 1.0 1.0 0.00 0.04 0.04 82 1009.6
20260509022047 73 107 1.0 1.0 0.00 0.04 0.04 82 1009.4
20260509021544 73 99 1.0 2.0 0.00 0.04 0.04 82 1009.5
20260509021041 73 98 2.0 2.0 0.00 0.04 0.04 82 1009.5
20260509020539 73 107 2.0 2.0 0.00 0.04 0.04 81 1009.5
20260509020035 73 105 0.0 0.0 0.00 0.04 0.04 81 1009.4
20260509015535 73 111 0.0 0.0 0.00 0.04 0.04 81 1009.4
20260509015032 74 118 0.0 0.0 0.00 0.04 0.04 81 1009.3
20260509014528 74 243 0.0 0.0 0.00 0.04 0.04 80 1009.2
20260509014024 74 249 0.0 1.0 0.00 0.04 0.04 80 1009.4
20260509013522 74 249 0.0 1.0 0.00 0.04 0.04 80 1009.2
20260509013017 74 244 0.0 0.0 0.00 0.04 0.04 80 1009.2
20260509012514 74 240 0.0 0.0 0.00 0.04 0.04 80 1009.2
20260509012011 74 234 1.0 1.0 0.00 0.04 0.04 80 1009.0
20260509011509 74 199 1.0 1.0 0.00 0.04 0.04 80 1008.9
20260509011006 74 185 1.0 1.0 0.00 0.04 0.04 80 1008.8
20260509010503 74 195 2.0 2.0 0.00 0.04 0.04 80 1008.8
20260509010000 74 219 1.0 1.0 0.00 0.04 0.04 79 1008.8
20260509005458 75 208 2.0 2.0 0.00 0.04 0.04 79 1008.5
20260509004957 75 211 2.0 2.0 0.00 0.04 0.04 79 1008.5
20260509004455 75 204 1.0 2.0 0.00 0.04 0.04 78 1008.7
20260509003952 75 113 1.0 2.0 0.00 0.04 0.04 78 1008.4
20260509003451 75 208 2.0 3.0 0.00 0.04 0.04 77 1008.5
20260509002947 76 165 3.0 5.0 0.00 0.04 0.04 76 1008.6
20260509002445 76 118 3.0 3.0 0.00 0.04 0.04 75 1008.3
20260509001942 77 202 2.0 2.0 0.00 0.04 0.04 75 1008.5
20260509001438 77 205 0.0 1.0 0.00 0.04 0.04 75 1008.6
20260509000935 76 140 2.0 2.0 0.00 0.04 0.04 75 1008.6
20260509000433 77 116 2.0 3.0 0.00 0.04 0.04 75 1008.3
20260508235928 77 201 3.0 3.0 0.00 0.04 0.04 74 1008.3
20260508235427 77 194 4.0 5.0 0.00 0.04 0.04 75 1008.5
20260508234923 77 183 4.0 6.0 0.00 0.04 0.04 74 1008.5
20260508234420 77 159 3.0 3.0 0.00 0.04 0.04 74 1008.4
20260508233918 77 182 4.0 5.0 0.00 0.04 0.04 74 1008.4
20260508233417 77 168 2.0 3.0 0.00 0.04 0.04 74 1008.5
20260508232913 77 172 3.0 5.0 0.00 0.04 0.04 74 1008.6
20260508232410 77 215 4.0 7.0 0.00 0.04 0.04 74 1008.6
20260508231908 77 164 1.0 1.0 0.00 0.04 0.04 74 1008.5
20260508231405 77 187 5.0 7.0 0.00 0.04 0.04 73 1008.7
20260508230901 76 114 2.0 2.0 0.00 0.04 0.04 74 1008.7
20260508230358 76 191 5.0 6.0 0.00 0.04 0.04 74 1008.8
20260508225850 77 193 6.0 9.0 0.00 0.04 0.04 74 1009.0
20260508225346 76 189 2.0 3.0 0.00 0.04 0.04 73 1008.9
20260508224844 76 163 4.0 5.0 0.00 0.04 0.04 75 1008.8
20260508224341 76 204 5.0 7.0 0.00 0.04 0.04 74 1009.0
20260508223839 77 127 2.0 2.0 0.00 0.04 0.04 73 1008.7
20260508223336 76 117 4.0 6.0 0.00 0.04 0.04 73 1008.8
20260508222834 76 196 3.0 5.0 0.00 0.04 0.04 73 1008.8
20260508222331 76 126 3.0 3.0 0.00 0.04 0.04 75 1008.9
20260508221827 75 114 2.0 3.0 0.00 0.04 0.04 76 1009.3
20260508221323 76 221 4.0 5.0 0.00 0.04 0.04 74 1009.4
20260508220820 75 210 2.0 2.0 0.00 0.04 0.04 75 1009.4
20260508220316 75 213 5.0 7.0 0.00 0.04 0.04 75 1009.0
20260508215813 74 206 4.0 6.0 0.00 0.04 0.04 77 1008.9
20260508215309 74 215 4.0 7.0 0.00 0.04 0.04 75 1008.8
20260508214806 74 179 4.0 5.0 0.00 0.04 0.04 76 1008.6
20260508214303 74 152 5.0 7.0 0.00 0.04 0.04 75 1008.6
20260508213800 73 116 3.0 5.0 0.00 0.04 0.04 77 1008.9
20260508213256 73 91 3.0 5.0 0.00 0.04 0.04 78 1008.8
20260508212753 72 105 9.0 10.0 0.00 0.04 0.04 78 1008.9
20260508212249 70 108 4.0 5.0 0.00 0.04 0.04 82 1009.0
20260508211745 70 115 9.0 10.0 0.00 0.04 0.04 83 1009.6
20260508211241 69 153 4.0 5.0 0.00 0.04 0.04 85 1009.8
20260508210739 68 93 6.0 7.0 0.00 0.04 0.04 84 1009.9
20260508210235 68 95 4.0 6.0 0.00 0.04 0.04 85 1010.1
20260508205731 67 307 1.0 1.0 0.00 0.04 0.04 85 1010.6
20260508205228 68 101 3.0 5.0 0.05 0.04 0.04 86 1010.5
20260508204724 67 171 3.0 3.0 0.12 0.04 0.04 85 1011.1
20260508204221 67 243 4.0 5.0 0.24 0.04 0.04 84 1011.1
20260508203717 68 197 3.0 3.0 0.12 0.02 0.02 83 1011.0
20260508203213 68 197 2.0 2.0 0.00 0.00 0.00 82 1011.1
20260508202709 69 201 3.0 5.0 0.00 0.00 0.00 81 1011.3
20260508202207 69 255 4.0 6.0 0.00 0.00 0.00 79 1011.4
20260508201703 70 235 1.0 2.0 0.00 0.00 0.00 76 1011.4
20260508201200 70 235 3.0 5.0 0.00 0.00 0.00 76 1011.6
20260508200657 70 180 5.0 6.0 0.00 0.00 0.00 74 1011.5
20260508200153 71 102 4.0 6.0 0.00 0.00 0.00 74 1011.1
20260508195650 71 185 5.0 6.0 0.00 0.00 0.00 74 1011.3
20260508195146 71 105 2.0 3.0 0.00 0.00 0.00 74 1011.3
20260508194643 71 198 4.0 5.0 0.00 0.00 0.00 73 1011.3
20260508194140 71 184 3.0 3.0 0.00 0.00 0.00 73 1011.3
20260508193637 71 181 5.0 7.0 0.00 0.00 0.00 72 1011.3
20260508193133 72 185 5.0 6.0 0.00 0.00 0.00 71 1011.3
20260508192630 72 101 2.0 3.0 0.00 0.00 0.00 70 1011.4
20260508192128 72 154 5.0 7.0 0.00 0.00 0.00 70 1011.4
20260508191624 72 156 2.0 2.0 0.00 0.00 0.00 69 1011.3
20260508191121 73 124 3.0 3.0 0.00 0.00 0.00 68 1011.4
20260508190618 72 212 3.0 5.0 0.00 0.00 0.00 68 1011.4
20260508190114 71 110 2.0 2.0 0.00 0.00 0.00 70 1011.5
20260508185611 71 176 5.0 7.0 0.00 0.00 0.00 70 1011.8
20260508185109 71 173 4.0 6.0 0.00 0.00 0.00 69 1012.0
20260508184606 71 182 3.0 6.0 0.00 0.00 0.00 68 1012.0
20260508184103 71 128 3.0 3.0 0.00 0.00 0.00 68 1012.0
20260508183559 71 192 2.0 2.0 0.00 0.00 0.00 69 1011.9
20260508183055 71 193 4.0 5.0 0.00 0.00 0.00 69 1012.3
20260508182552 71 118 2.0 3.0 0.00 0.00 0.00 69 1012.5
20260508182050 71 130 3.0 5.0 0.00 0.00 0.00 68 1012.3
20260508181549 71 90 3.0 5.0 0.00 0.00 0.00 68 1012.2
20260508181048 72 136 5.0 6.0 0.00 0.00 0.00 69 1012.5
20260508180544 72 166 2.0 3.0 0.00 0.00 0.00 69 1012.6
20260508180041 72 168 2.0 2.0 0.00 0.00 0.00 68 1012.5
20260508175537 72 101 4.0 5.0 0.00 0.00 0.00 67 1012.4
20260508175035 72 99 6.0 7.0 0.00 0.00 0.00 67 1012.3
20260508174532 71 102 6.0 8.0 0.00 0.00 0.00 68 1012.5
20260508174029 71 109 4.0 5.0 0.00 0.00 0.00 69 1012.6
20260508173526 72 124 3.0 3.0 0.00 0.00 0.00 69 1012.9
20260508173022 72 95 5.0 7.0 0.00 0.00 0.00 68 1012.8
20260508172519 72 179 2.0 2.0 0.00 0.00 0.00 67 1012.9
20260508172015 71 97 7.0 8.0 0.00 0.00 0.00 68 1013.0
20260508171512 72 125 5.0 7.0 0.00 0.00 0.00 66 1013.1
20260508171008 72 121 3.0 5.0 0.00 0.00 0.00 67 1013.0
20260508170506 72 117 6.0 7.0 0.00 0.00 0.00 67 1013.0
20260508170003 72 114 3.0 5.0 0.00 0.00 0.00 68 1013.3
20260508165500 72 179 2.0 2.0 0.00 0.00 0.00 67 1013.3
20260508164956 71 96 1.0 2.0 0.00 0.00 0.00 69 1013.5
20260508164453 71 158 6.0 8.0 0.00 0.00 0.00 68 1013.3
20260508163950 69 111 5.0 7.0 0.00 0.00 0.00 71 1013.5
20260508163448 69 100 7.0 8.0 0.00 0.00 0.00 71 1013.6
20260508162943 69 116 5.0 7.0 0.00 0.00 0.00 72 1013.8
20260508162441 68 108 5.0 6.0 0.00 0.00 0.00 73 1013.9
20260508161938 68 83 3.0 5.0 0.00 0.00 0.00 74 1014.1
20260508161435 68 122 4.0 5.0 0.00 0.00 0.00 73 1014.2
20260508160932 68 105 2.0 2.0 0.00 0.00 0.00 73 1014.2
20260508160431 68 187 1.0 2.0 0.00 0.00 0.00 74 1014.4
20260508155927 68 166 3.0 3.0 0.00 0.00 0.00 74 1014.4
20260508155424 68 94 2.0 3.0 0.00 0.00 0.00 73 1014.1
20260508154921 68 83 1.0 2.0 0.00 0.00 0.00 74 1014.2
20260508154419 67 54 1.0 2.0 0.00 0.00 0.00 75 1014.6
20260508153915 67 78 2.0 2.0 0.00 0.00 0.00 75 1014.5
20260508153412 67 75 1.0 1.0 0.00 0.00 0.00 76 1014.5
20260508152908 66 87 2.0 2.0 0.00 0.00 0.00 76 1014.3
20260508152405 66 76 4.0 5.0 0.00 0.00 0.00 76 1014.6
20260508151901 67 97 4.0 5.0 0.00 0.00 0.00 76 1014.6
20260508151358 67 73 3.0 5.0 0.00 0.00 0.00 75 1014.6
20260508150854 67 77 1.0 3.0 0.00 0.00 0.00 75 1014.5
20260508150352 66 98 3.0 3.0 0.00 0.00 0.00 75 1014.8
20260508145847 66 79 1.0 2.0 0.00 0.00 0.00 75 1014.6
20260508145344 66 82 3.0 3.0 0.00 0.00 0.00 76 1014.5
20260508144841 67 117 5.0 6.0 0.00 0.00 0.00 74 1014.6
20260508144339 66 75 1.0 2.0 0.00 0.00 0.00 75 1014.7
20260508143836 66 87 1.0 2.0 0.00 0.00 0.00 74 1014.6
20260508143333 66 75 2.0 3.0 0.00 0.00 0.00 75 1014.6
20260508142830 66 112 1.0 2.0 0.00 0.00 0.00 75 1014.4
20260508142326 67 120 4.0 5.0 0.00 0.00 0.00 74 1014.7
20260508141823 67 72 2.0 3.0 0.00 0.00 0.00 73 1014.7
20260508141320 67 62 1.0 2.0 0.00 0.00 0.00 73 1014.6
20260508140817 66 85 0.0 0.0 0.00 0.00 0.00 75 1014.6
20260508140314 66 84 5.0 7.0 0.00 0.00 0.00 74 1014.6
20260508135810 66 108 1.0 1.0 0.00 0.00 0.00 75 1014.6
20260508135306 66 79 5.0 6.0 0.00 0.00 0.00 74 1014.7
20260508134802 66 64 4.0 5.0 0.00 0.00 0.00 75 1015.0
20260508134259 66 60 1.0 1.0 0.00 0.00 0.00 76 1015.0
20260508133756 65 79 2.0 2.0 0.00 0.00 0.00 77 1015.2
20260508133254 65 22 3.0 3.0 0.00 0.00 0.00 78 1015.2
20260508132751 66 46 1.0 2.0 0.00 0.00 0.00 76 1015.1
20260508132248 66 35 1.0 2.0 0.00 0.00 0.00 76 1014.8
20260508131744 66 33 0.0 0.0 0.00 0.00 0.00 76 1015.2
20260508131241 64 46 0.0 1.0 0.00 0.00 0.00 78 1015.5
20260508130737 64 1 1.0 1.0 0.00 0.00 0.00 78 1015.2
20260508130235 64 40 2.0 2.0 0.00 0.00 0.00 78 1015.1
20260508125730 63 39 2.0 2.0 0.00 0.00 0.00 81 1015.2
20260508125227 63 354 1.0 2.0 0.00 0.00 0.00 81 1015.1
20260508124725 62 1 1.0 1.0 0.00 0.00 0.00 83 1014.8
20260508124222 61 319 0.0 0.0 0.00 0.00 0.00 84 1014.8